{"data":{"norad_id":56040,"intl_designator":"2023-042BG","name":"STARLINK-5798","alt_names":[],"object_type":"PAYLOAD","status":"ACTIVE","operator":null,"country":"US","launch_date":"2023-03-24","launch_site_code":"AFETR","launch_vehicle":null,"mission":null,"orbit_class":"UNKNOWN","rcs_meters":null,"size_class":null,"mass_kg":null,"dimensions":null,"purposes":["comms"],"wikipedia_slug":null,"has_3d_model":false,"image_url":null,"decayed_at":null,"tle_current":{"epoch":"2026-09-19T15:46:38.365536Z","epoch_age_seconds":178958,"freshness":"STALE","line1":"1 56040U 23042BG  26262.65738849  .00000040  00000+0  10983-4 0  9992","line2":"2 56040  43.0043  15.5977 0001799 266.6878  93.3767 15.27576260192866","mean_motion":15.2757626,"eccentricity":0.0001799,"inclination_deg":43.0043,"raan_deg":15.5977,"arg_perigee_deg":266.6878,"mean_anomaly_deg":93.3767,"bstar":1.0983e-5,"rev_number":19286,"period_min":94.266979509095,"perigee_km":481.8259655746,"apogee_km":484.29462436132,"semimajor_km":6861.197294968,"source":"CELESTRAK","updated_at":"2026-09-21T09:00:33.361029Z"}}}